Showing default

DSAT, 42794

Orbit data source: Space-Track

DSAT, 42794 is a payload satellite owned by D-ORBIT (IT) in SSO that was launched on Fri, 23 Jun 2017 UTC via a PSLV-XL launch vehicle from the Sirharikota (SRI). Payload-class satellites include a variety of spacecraft equipped with specific instruments for various scientific and technological missions. These include communications satellites like Starlink; space stations such as the ISS; scientific satellites like the Hubble; Earth observation satellites from companies like Planet Labs, Umbra, and HawkEye 360; GPS; miniature CubeSats for education and research; and military/defense satellites.

Loading next visibility...
Identifier
42794, 2017-036AF
Orbit
SSO
Last TLE update
12 hours ago
Origin
Manufacturer
D-ORBIT
Mission
Non-operational Commercial Technology
Bus & Motor
CUBESAT 3U, Unknown motor
Mass
4.5 kg wet, 4.2 kg dry
Launch date (UTC)
2017-06-23 (8 years ago)
Launch vehicle
PSLV-XL
Launch site
Sirharikota (SRI)
Object type
Payload
Rocket body
Debris
Shape & HBR
Box, 0.3 m
Radar Cross Section
0.035 m², Small (<0.1 m²)

Expand to show TLE details & history

TLE from 12 hours ago
0 DSAT
1 42794U 17036AF  25181.90535064  .00004112  00000-0  23039-3 0  9990
2 42794  97.5155 159.4130 0091250 295.0286  64.1490 15.10453416437741
Epoch: 2025-06-30T21:43Z
TLE epoch observation values (Epoch: 2025-06-30T21:43:42.295Z)
Latitude
0.00001°
Longitude
-85.72168°
Altitude
510.849 km
Speed
7.623 km/s
True Right ascension
10h 37m 39s
True Declination
0° 00' 00"
Sunlit
Object was in daylight at epoch
Visualization orbit readout
Latitude
19.40498°
Longitude
97.41191°
Altitude
580.051 km
Speed
7.549 km/s
Apparent Right ascension
01h 45m 38s
Apparent Declination
-31° 17' 11"
Sunlit
Object is in daylight
Visualization observer readout
Local Sidereal Time
21:12:42
Azimuth
127.165° SE
Elevation
-5.173°
Doppler factor
1
Orbital elements
Apogee altitude
594.852 km
Perigee altitude
468.746 km
Semi-major axis
6,909.936 km
Eccentricity
0.00913
Inclination
97.5155°
RAAN
159.413°
Arg. of periapsis
295.0286°
True anomaly
Unknown
Mean anomaly
64.149°
Eccentric anomaly
Unknown
Mean motion
3.77861 °/min
Orbital period
95.27 mins
BSTAR
0.00023039
Loading maneuver chart data...
Loading SW <> Apogee altitude chart data...
Loading historical data...
Loading historical data...
Loading historical data...
Loading historical data...
Loading historical data...
Loading historical data...
Loading historical data...

DSAT Visibility forecast

Observer location: undefined°, undefined°

Span
Click to sort rows by Start time (UTC) header in descending order
Start Az.
Max El. time (UTC)
Max El. Az.
Max El.
End time (UTC)
End Az.
7 mins2025-07-01 11:00:24.386Z23.75° NE2025-07-01 11:04:24.386Z97.417° ESE36.724°2025-07-01 11:07:24.386Z169.152° S
4 mins2025-07-01 21:44:24.386Z102.597° ESE2025-07-01 21:46:24.386Z60.149° ENE20.801°2025-07-01 21:48:24.386Z24.875° NE
5 mins2025-07-01 23:18:24.386Z223.34° SW2025-07-01 23:20:24.386Z266.675° W23.035°2025-07-01 23:23:24.386Z319.269° NNW
|